Weather History for College Park, MD

Change the Weather History Date:

Friday, November 2, 2012

  Actual Average Record
Temperature  
Mean Temperature 46 °F -  
Max Temperature 54 °F 65 °F 85 °F (1971)
Min Temperature 38 °F 46 °F 23 °F (1958)
Degree Days  
Heating Degree Days 19    
Moisture  
Dew Point 31 °F    
Average Humidity 56    
Maximum Humidity 86    
Minimum Humidity 38    
Precipitation  
Precipitation 0.00 in - - ()
Sea Level Pressure  
Sea Level Pressure 29.80 in    
Wind  
Wind Speed 4 mph (WNW)    
Max Wind Speed 14 mph    
Max Gust Speed 24 mph    
Visibility 10 miles    
Events      
Averages and records for this station are not official NWS values.
T = Trace of Precipitation, MM = Missing Value Source: NWS Daily Summary

Daily Weather History Graph

Daily Weather History Graph

Search for Another Location

Airport:

Trip Planner

Search our weather history database for the weather conditions in past years. The results will help you decide how hot, cold, wet, or windy it might be!

Date:

Astronomy

Nov. 02, 2012 Rise Set
Actual Time 7:36 AM EDT 6:05 PM EDT
Civil Twilight 7:08 AM EDT 6:33 PM EDT
Nautical Twilight 6:37 AM EDT 7:04 PM EDT
Astronomical Twilight 6:06 AM EDT 7:35 PM EDT
Moon 8:51 PM EDT (11/2) 10:54 AM EDT (11/2)
Length of Visible Light 11h 24m
Length of Day
10h 28m
Waning Gibbous, 87% of the Moon is Illuminated
Nov 2
Waning Gibbous
Nov 6
Last Quarter
Nov 13
New
Nov 20
First Quarter
Nov 28
Full

Hourly Weather History & Observations

Time (EDT) Temp. Windchill Dew Point Humidity Pressure Visibility Wind Dir Wind Speed Gust Speed Precip Events Conditions
12:15 AM 47.7 °F - 32.9 °F 57% 29.76 in 10.0 mi Calm Calm - N/A   Mostly Cloudy
12:35 AM 47.8 °F - 32.9 °F 56% 29.76 in 10.0 mi WSW 3.5 mph - N/A   Overcast
12:55 AM 47.5 °F - 32.9 °F 57% 29.76 in 10.0 mi Calm Calm - N/A   Mostly Cloudy
1:20 AM 46.4 °F - 32.4 °F 58% 29.76 in 10.0 mi Calm Calm - N/A   Clear
1:40 AM 46.0 °F 44.8 °F 32.4 °F 59% 29.76 in 10.0 mi SW 3.5 mph - N/A   Scattered Clouds
2:00 AM 45.5 °F - 32.5 °F 61% 29.76 in 10.0 mi Calm Calm - N/A   Mostly Cloudy
2:20 AM 44.8 °F - 32.7 °F 63% 29.76 in 10.0 mi Calm Calm - N/A   Scattered Clouds
2:45 AM 44.2 °F - 32.9 °F 64% 29.76 in 10.0 mi Calm Calm - N/A   Clear
3:05 AM 44.8 °F 43.3 °F 32.5 °F 62% 29.76 in 10.0 mi SW 3.5 mph - N/A   Clear
3:25 AM 44.4 °F - 32.7 °F 64% 29.76 in 10.0 mi Calm Calm - N/A   Clear
3:45 AM 42.4 °F - 32.9 °F 69% 29.76 in 10.0 mi Calm Calm - N/A   Clear
4:10 AM 39.2 °F - 34.0 °F 82% 29.76 in 10.0 mi Calm Calm - N/A   Clear
4:30 AM 38.7 °F - 33.8 °F 83% 29.76 in 10.0 mi Calm Calm - N/A   Clear
4:50 AM 39.2 °F - 34.9 °F 84% 29.75 in 10.0 mi Calm Calm - N/A   Clear
5:10 AM 39.4 °F - 35.1 °F 84% 29.75 in 10.0 mi Calm Calm - N/A   Clear
5:35 AM 39.4 °F - 35.2 °F 85% 29.75 in 10.0 mi Calm Calm - N/A   Clear
5:55 AM 39.6 °F - 35.2 °F 85% 29.75 in 10.0 mi Calm Calm - N/A   Scattered Clouds
6:15 AM 40.1 °F - 35.6 °F 84% 29.75 in 10.0 mi Calm Calm - N/A   Scattered Clouds
6:35 AM 40.5 °F - 36.5 °F 86% 29.75 in 10.0 mi Calm Calm - N/A   Scattered Clouds
7:00 AM 40.5 °F - 36.7 °F 86% 29.76 in 10.0 mi Calm Calm - N/A   Scattered Clouds
7:40 AM 40.3 °F - 36.5 °F 86% 29.76 in 10.0 mi Calm Calm - N/A   Overcast
8:00 AM 40.5 °F - 36.5 °F 86% 29.77 in 10.0 mi Calm Calm - N/A   Overcast
8:20 AM 40.5 °F - 36.5 °F 86% 29.77 in 10.0 mi Calm Calm - N/A   Scattered Clouds
8:45 AM 41.5 °F - 37.8 °F 86% 29.77 in 10.0 mi Calm Calm - N/A   Mostly Cloudy
9:05 AM 45.5 °F - 33.6 °F 63% 29.78 in 10.0 mi Calm Calm - N/A   Overcast
9:25 AM 46.2 °F - 32.7 °F 59% 29.78 in 10.0 mi Calm Calm - N/A   Overcast
9:45 AM 47.3 °F - 31.6 °F 55% 29.78 in 10.0 mi West 4.6 mph - N/A   Overcast
10:10 AM 48.4 °F - 31.1 °F 51% 29.78 in 10.0 mi West 4.6 mph - N/A   Scattered Clouds
10:30 AM 49.5 °F - 30.7 °F 49% 29.78 in 10.0 mi West 6.9 mph - N/A   Clear
10:50 AM 50.7 °F - 30.2 °F 45% 29.77 in 10.0 mi NW 11.5 mph 17.3 mph N/A   Clear
11:10 AM 52.2 °F - 31.5 °F 45% 29.78 in 10.0 mi WNW 12.7 mph 18.4 mph N/A   Clear
11:35 AM 51.8 °F - 30.7 °F 45% 29.78 in 10.0 mi WNW 8.1 mph 16.1 mph N/A   Mostly Cloudy
11:55 AM 53.6 °F - 31.3 °F 43% 29.78 in 10.0 mi WNW 10.4 mph 20.7 mph N/A   Mostly Cloudy
12:15 PM 52.3 °F - 30.2 °F 43% 29.78 in 10.0 mi WNW 11.5 mph 18.4 mph N/A   Mostly Cloudy
12:35 PM 54.5 °F - 30.6 °F 40% 29.77 in 10.0 mi WNW 11.5 mph 17.3 mph N/A   Mostly Cloudy
1:00 PM 52.7 °F - 27.9 °F 38% 29.77 in 10.0 mi WNW 11.5 mph 19.6 mph N/A   Overcast
1:20 PM 51.3 °F - 28.4 °F 41% 29.78 in 10.0 mi NNW 12.7 mph 23.0 mph N/A   Overcast
1:40 PM 51.8 °F - 29.5 °F 42% 29.78 in 10.0 mi NNW 10.4 mph - N/A   Overcast
2:00 PM 51.4 °F - 29.8 °F 44% 29.78 in 10.0 mi NW 10.4 mph 21.9 mph N/A   Overcast
2:25 PM 51.3 °F - 29.3 °F 43% 29.78 in 10.0 mi NW 8.1 mph - N/A   Overcast
2:45 PM 51.1 °F - 28.8 °F 42% 29.78 in 10.0 mi WNW 11.5 mph 16.1 mph N/A   Overcast
3:05 PM 51.3 °F - 28.0 °F 41% 29.78 in 10.0 mi WNW 13.8 mph 24.2 mph N/A   Overcast
3:25 PM 51.1 °F - 28.2 °F 41% 29.79 in 10.0 mi WNW 6.9 mph - N/A   Overcast
3:50 PM 51.6 °F - 27.9 °F 40% 29.79 in 10.0 mi WNW 10.4 mph 18.4 mph N/A   Scattered Clouds
4:10 PM 52.2 °F - 27.3 °F 38% 29.80 in 10.0 mi West 11.5 mph 21.9 mph N/A   Mostly Cloudy
4:30 PM 51.3 °F - 27.5 °F 40% 29.81 in 10.0 mi West 6.9 mph - N/A   Mostly Cloudy
4:50 PM 51.1 °F - 27.1 °F 40% 29.81 in 10.0 mi West 9.2 mph 20.7 mph N/A   Overcast
5:15 PM 50.9 °F - 27.5 °F 40% 29.82 in 10.0 mi West 10.4 mph 20.7 mph N/A   Overcast
5:35 PM 50.4 °F - 27.5 °F 41% 29.83 in 10.0 mi West 9.2 mph - N/A   Overcast
5:55 PM 50.2 °F - 27.3 °F 41% 29.84 in 10.0 mi WNW 10.4 mph 20.7 mph N/A   Overcast
7:20 PM 49.5 °F - 27.7 °F 43% 29.88 in 10.0 mi WNW 9.2 mph 16.1 mph N/A   Overcast
7:40 PM 49.5 °F - 27.9 °F 43% 29.89 in 10.0 mi West 10.4 mph 19.6 mph N/A   Overcast
8:05 PM 49.3 °F - 28.2 °F 44% 29.89 in 10.0 mi WNW 12.7 mph 20.7 mph N/A   Overcast
8:25 PM 49.1 °F - 28.6 °F 45% 29.89 in 10.0 mi West 6.9 mph 17.3 mph N/A   Overcast
8:45 PM 49.1 °F - 28.8 °F 45% 29.89 in 10.0 mi WNW 11.5 mph 18.4 mph N/A   Overcast
9:05 PM 48.6 °F - 29.1 °F 47% 29.90 in 10.0 mi WNW 6.9 mph - N/A   Overcast
9:30 PM 48.4 °F - 29.3 °F 48% 29.91 in 10.0 mi NW 11.5 mph 16.1 mph N/A   Overcast
9:50 PM 48.2 °F - 29.7 °F 49% 29.91 in 10.0 mi WNW 5.8 mph - N/A   Overcast
10:10 PM 47.7 °F - 29.7 °F 50% 29.92 in 10.0 mi NW 8.1 mph 16.1 mph N/A   Mostly Cloudy
10:30 PM 47.3 °F - 29.8 °F 51% 29.92 in 10.0 mi NW 10.4 mph 17.3 mph N/A   Scattered Clouds
10:55 PM 46.8 °F - 29.8 °F 52% 29.93 in 10.0 mi WNW 5.8 mph 19.6 mph N/A   Clear
11:15 PM 46.6 °F - 29.7 °F 52% 29.93 in 10.0 mi NW 11.5 mph 19.6 mph N/A   Scattered Clouds
11:35 PM 46.4 °F 42.4 °F 29.8 °F 53% 29.93 in 10.0 mi WNW 8.1 mph 16.1 mph N/A   Mostly Cloudy
11:55 PM 46.2 °F 43.3 °F 30.2 °F 54% 29.93 in 10.0 mi WNW 5.8 mph 18.4 mph N/A   Overcast